Simultaneous Nadir Overpasses (SNOs) Predictions

Prediction of SNOs between METOP-A and NOAA-19 Satellite Orbit:

Table of predicted SNOs for the next 14.0 days since TLE Epoch: 7/10/2021
Index Date (METOP-A) Time (METOP-A) Lat,Lon (METOP-A) SZA (METOP-A ) Date (NOAA-19) Time (NOAA-19) Lat,Lon (NOAA-19) SZA (NOAA-19 ) Distance(km) Time Diff (sec)
1 07/17/2021 08:32:58 -80.79,-121.23 120.35 07/17/2021 08:32:05 -80.78,-121.35 120.36 2.22 53
2 07/17/2021 09:23:39 80.78, 45.94 59.65 07/17/2021 09:23:01 80.79, 46.00 59.65 1.41 38
3 07/17/2021 10:14:20 -80.78,-146.73 120.35 07/17/2021 10:14:05 -80.79,-146.74 120.35 0.92 15
4 07/17/2021 11:05:00 80.79, 20.79 59.67 07/17/2021 11:05:01 80.79, 20.61 59.67 3.18 1
5 07/17/2021 11:55:41 -80.79,-171.88 120.32 07/17/2021 11:56:04 -80.80,-171.76 120.32 2.08 23
6 07/17/2021 12:46:21 80.80, -4.36 59.70 07/17/2021 12:47:00 80.80, -4.41 59.70 1.16 39



Historial Predications of SNOs between METOP-A and NOAA-19
